Weather History for Wheeling, WV

Change the Weather History Date:

Wednesday, May 8, 2013

  Actual Average Record
Temperature  
Mean Temperature 63 °F 58 °F  
Max Temperature 71 °F 68 °F 84 °F (2014)
Min Temperature 54 °F 48 °F 31 °F (1950)
Degree Days  
Heating Degree Days 2 8  
Month to date heating degree days 21 68  
Since 1 July heating degree days 5307 5426  
Cooling Degree Days 0    
Month to date cooling degree days 0  
Year to date cooling degree days 20  
Growing Degree Days 12 (Base 50)    
Moisture  
Dew Point 51 °F    
Average Humidity 70    
Maximum Humidity 100    
Minimum Humidity 40    
Precipitation  
Precipitation 0.06 in 0.13 in 1.24 in (2012)
Month to date precipitation 0.16 0.99  
Sea Level Pressure  
Sea Level Pressure 29.94 in    
Wind  
Wind Speed 7 mph (NE)    
Max Wind Speed 16 mph    
Max Gust Speed 21 mph    
Visibility 10 miles    
Events Rain    
T = Trace of Precipitation, MM = Missing Value Source: NWS Daily Summary

Daily Weather History Graph

Daily Weather History Graph

Search for Another Location

Airport:

Trip Planner

Search our weather history database for the weather conditions in past years. The results will help you decide how hot, cold, wet, or windy it might be!

Date:

Astronomy

May. 08, 2013 Rise Set
Actual Time 6:13 AM EDT 8:24 PM EDT
Civil Twilight 5:43 AM EDT 8:55 PM EDT
Nautical Twilight 5:06 AM EDT 9:32 PM EDT
Astronomical Twilight 4:26 AM EDT 10:12 PM EDT
Moon 5:21 AM EDT (5/8) 7:21 PM EDT (5/8)
Length of Visible Light 15h 11m
Length of Day
14h 11m
Waning Crescent, 2% of the Moon is Illuminated
May 8
Waning Crescent
May 9
New
May 18
First Quarter
May 25
Full
May 31
Last Quarter

Hourly Weather History & Observations

Time (EDT) Temp. Dew Point Humidity Pressure Visibility Wind Dir Wind Speed Gust Speed Precip Events Conditions
12:53 AM 57.0 °F 54.0 °F 89% 29.95 in 10.0 mi NE 11.5 mph - 0.00 in   Overcast
1:53 AM 57.0 °F 55.0 °F 93% 29.93 in 10.0 mi NE 12.7 mph - 0.01 in Rain Light Rain
2:53 AM 57.0 °F 55.0 °F 93% 29.91 in 10.0 mi NE 11.5 mph - 0.02 in Rain Light Rain
3:01 AM 57.2 °F 55.4 °F 94% 29.91 in 10.0 mi NE 9.2 mph - 0.00 in   Overcast
3:14 AM 57.2 °F 55.4 °F 94% 29.90 in 10.0 mi NNE 9.2 mph - 0.00 in   Overcast
3:46 AM 57.2 °F 55.4 °F 94% 29.90 in 10.0 mi NE 11.5 mph - 0.00 in   Overcast
3:53 AM 57.0 °F 55.0 °F 93% 29.90 in 7.0 mi NE 13.8 mph - 0.00 in Rain Light Rain
4:53 AM 55.9 °F 55.0 °F 97% 29.91 in 9.0 mi NE 9.2 mph - 0.02 in Rain Light Rain
5:53 AM 55.0 °F 53.1 °F 93% 29.93 in 10.0 mi East 5.8 mph - 0.00 in   Partly Cloudy
6:53 AM 54.0 °F 53.1 °F 97% 29.95 in 10.0 mi East 8.1 mph - N/A   Clear
7:53 AM 55.9 °F 53.1 °F 90% 29.96 in 10.0 mi East 11.5 mph - N/A   Clear
8:53 AM 57.9 °F 51.1 °F 78% 29.99 in 10.0 mi East 11.5 mph - 0.01 in   Clear
9:53 AM 60.1 °F 51.1 °F 72% 29.99 in 10.0 mi Variable 6.9 mph - N/A   Scattered Clouds
10:53 AM 63.0 °F 50.0 °F 63% 29.99 in 10.0 mi Calm Calm - N/A   Partly Cloudy
11:53 AM 63.0 °F 48.9 °F 60% 29.98 in 10.0 mi SE 5.8 mph - N/A   Scattered Clouds
12:53 PM 66.9 °F 48.0 °F 51% 29.97 in 10.0 mi NE 8.1 mph - N/A   Mostly Cloudy
1:53 PM 68.0 °F 46.0 °F 45% 29.96 in 10.0 mi ENE 8.1 mph - N/A   Mostly Cloudy
2:53 PM 69.1 °F 46.0 °F 44% 29.94 in 10.0 mi North 6.9 mph - N/A   Partly Cloudy
3:53 PM 69.1 °F 45.0 °F 42% 29.92 in 10.0 mi NNW 3.5 mph - N/A   Partly Cloudy
4:53 PM 69.1 °F 44.1 °F 40% 29.92 in 10.0 mi Variable 4.6 mph - N/A   Scattered Clouds
5:53 PM 69.1 °F 45.0 °F 42% 29.92 in 10.0 mi WNW 6.9 mph - N/A   Clear
6:53 PM 68.0 °F 45.0 °F 43% 29.92 in 10.0 mi WNW 4.6 mph - N/A   Clear
7:53 PM 66.9 °F 45.0 °F 45% 29.92 in 10.0 mi Calm Calm - N/A   Scattered Clouds
8:53 PM 63.0 °F 46.9 °F 56% 29.94 in 10.0 mi North 5.8 mph - N/A   Partly Cloudy
9:53 PM 63.0 °F 50.0 °F 63% 29.95 in 10.0 mi North 4.6 mph - N/A   Overcast
10:53 PM 62.1 °F 51.1 °F 67% 29.96 in 10.0 mi Calm Calm - N/A   Overcast
11:53 PM 60.1 °F 51.1 °F 72% 29.96 in 10.0 mi North 3.5 mph - 0.00 in   Overcast